Regional Weather Roundup
Issued by NWS

Home | Current Version | Previous Version | Graphics & Text | Print | Product List | Glossary On
Versions: 1 2 3 4 5 6 7 8 9 10 11 12 13 14 15 16 17 18 19 20 21 22 23 24 25 26 27 28 29 30 31 32 33 34 35 36 37 38 39 40 41 42 43 44 45 46 47 48 49 50
000
ASUS43 KOAX 220902
RWRNE

WEATHER ROUNDUP FOR NEBRASKA
NATIONAL WEATHER SERVICE OMAHA NE
300 AM CST THU FEB 22 2018

NOTES: SATELLITE DATA IS BEING USED TO AUGMENT CLOUD COVER ABOVE
       12000 FEET.
       "FAIR" INDICATES FEW OR NO CLOUDS BELOW 12,000 FEET WITH NO
       SIGNIFICANT WEATHER AND/OR OBSTRUCTIONS TO VISIBILITY.


NEZ001>004-019>022-054>056-221000-
NEBRASKA PANHANDLE

CITY           SKY/WX    TMP DP  RH WIND       PRES   REMARKS
SCOTTSBLUFF    CLOUDY     9   4  80 E10       30.15F WCI  -5
ALLIANCE       FAIR       5   2  87 S12       30.15F WCI -11
CHADRON        MOCLDY    18   7  62 S14       30.16F WCI   4
GORDON         FAIR      13   6  72 SW9       30.17F WCI   1
KIMBALL        FAIR       6   3  87 S6        30.09F WCI  -4
SIDNEY         CLOUDY    16  12  84 SE6       30.14F WCI   7
$$

NEZ057>060-069>072-079>082-221000-
SOUTHWEST NEBRASKA

CITY           SKY/WX    TMP DP  RH WIND       PRES   REMARKS
NORTH PLATTE   CLOUDY    21  15  78 SE12      30.30F WCI   9
IMPERIAL       CLOUDY    21  10  62 SE9       30.24F WCI  11
LEXINGTON      FLURRIES  22  16  76 E6        30.35R WCI  15
MCCOOK         CLOUDY    22  11  62 SE8       30.31S WCI  12
OGALLALA       CLOUDY    23  14  68 SE8       30.24F WCI  14
$$

NEZ005>010-023>029-035>040-094-221000-
NORTH CENTRAL NEBRASKA

CITY           SKY/WX    TMP DP  RH WIND       PRES   REMARKS
VALENTINE      FAIR      15   7  70 S14       30.28F WCI   0
AINSWORTH      MOCLDY    17  15  91 S8        30.30F WCI   7
BROKEN BOW     FLURRIES  20  16  84 SE9       30.34S WCI   9
O`NEILL        FLURRIES  19  17  89 S9        30.39S WCI   9
ORD            CLOUDY    19  16  88 SE7       30.38F WCI  10
THEDFORD       CLOUDY    21  18  88 SE8       30.29S WCI  11
$$

NEZ041-046>049-061>064-073>077-083>087-221000-
SOUTH CENTRAL NEBRASKA

CITY           SKY/WX    TMP DP  RH WIND       PRES   REMARKS
GRAND ISLAND   CLOUDY    21  17  84 NE12      30.40F WCI   9
AURORA         FLURRIES  20  18  89 NE8       30.40F WCI  11
HASTINGS       CLOUDY    20  16  84 E9        30.39S FOG     WCI   9
HEBRON         LGT SNOW  23  21  91 NE5       30.42S WCI  17
HOLDREGE       CLOUDY    22  13  70 E12       30.34S WCI  10
KEARNEY        CLOUDY    20  15  81 E13       30.37F WCI   7
YORK           FLURRIES  21  21 100 NE7       30.42F WCI  13
$$

NEZ011>018-030>034-042>045-221000-
NORTHEAST NEBRASKA

CITY           SKY/WX    TMP DP  RH WIND       PRES   REMARKS
NORFOLK        LGT SNOW  20  17  88 SE8       30.42F FOG     WCI  10
ALBION         CLOUDY    21  17  84 SE8       30.42S WCI  12
BLAIR          CLOUDY    22  20  92 NE6       30.46F WCI  15
COLUMBUS       LGT SNOW  20  18  92 E8        30.46F FOG     WCI  10
FREMONT        CLOUDY    21  19  92 NE5       30.47F WCI  15
TEKAMAH        LGT SNOW  21  19  93 NE5       30.50F FOG     WCI  15
WAYNE          CLOUDY    21  19  92 SE6       30.46F WCI  13
$$

NEZ050>053-065>068-078-088>093-221000-
SOUTHEAST NEBRASKA

CITY           SKY/WX    TMP DP  RH WIND       PRES   REMARKS
LINCOLN        LGT SNOW  22  19  89 NE10      30.46F FOG     WCI  11
OMAHA EPPLEY   CLOUDY    23  18  81 NE5       30.50F WCI  17
BEATRICE       LGT SNOW  24  22  93 NE7       30.42F WCI  16
FALLS CITY     LGT SNOW  25  22  88 E9        30.42F FOG     WCI  15
NEBRASKA CITY  LGT SNOW  24  24 100 NE10      30.44F WCI  13
PLATTSMOUTH    LGT SNOW  24  21  89 NE8       30.46S WCI  14
$$

NEZ044-045-051>053-067-221000-
OMAHA AREA

CITY           SKY/WX    TMP DP  RH WIND       PRES   REMARKS
OMAHA EPPLEY   CLOUDY    23  18  81 NE5       30.50F WCI  17
BLAIR          CLOUDY    22  20  92 NE6       30.46F WCI  15
FREMONT        CLOUDY    21  19  92 NE5       30.47F WCI  15
MILLARD        CLOUDY    24  20  85 CALM      30.48F
OFFUTT AFB     MOCLDY    23  16  74 NE9       30.48F WCI  13
PLATTSMOUTH    LGT SNOW  24  21  89 NE8       30.46S WCI  14
WAHOO          CLOUDY    22  19  89 NE3       30.48R
$$



USA.gov is the U.S. government's official web portal to all federal, state and local government web resources and services.